Location: Stanford
(52.2833°N, 2.4333°W)
Time: 02:00:21
(UTC+00:00)

ARGOS - Pass Details

Date: 22 January 2021
Orbit: 821 x 834 km, 98.4° (Epoch: 28 February)

Event Time Altitude Azimuth Distance (km) Brightness Sun altitude
Rises 18:34:41 0° 151° (SSE) 3,345 6.1 -17.3°
Reaches altitude 10° 18:37:02 10° 148° (SSE) 2,417 5.4 -17.6°
Maximum altitude 18:42:18 61° 69° (ENE) 933 3.1 -18.4°
Drops below altitude 10° 18:47:37 10° 350° (N) 2,441 5.6 -19.2°
Sets 18:50:00 0° 348° (NNW) 3,380 6.4 -19.6°
